DW9577 Weather Reports


Display with metric or nautical units.
time (UTC)temp
F
wind
direction
speed
MPH
gust
MPH
rain 1hr
in
rain 24hr
in
rain mn
in
humidity
%
barometer
mb
20260506174525 61 271 8.0 21.0 0.00 0.50 0.04 28 994.1
20260506173004 62 278 23.0 32.0 0.00 0.50 0.04 42 993.7
20260506171503 62 181 28.0 40.0 0.00 0.50 0.04 47 993.2
20260506170004 59 114 11.0 20.0 0.00 0.50 0.04 38 992.3
20260506164503 58 239 11.0 25.0 0.00 0.50 0.04 38 991.7
20260506163004 59 209 21.0 28.0 0.00 0.50 0.04 51 991.6
20260506161503 57 136 12.0 22.0 0.00 0.50 0.04 47 991.0
20260506160004 55 144 11.0 19.0 0.00 0.50 0.04 45 990.2
20260506154504 54 185 10.0 23.0 0.00 0.50 0.04 47 989.8
20260506153004 54 211 12.0 19.0 0.00 0.50 0.04 53 989.5
20260506151503 53 243 16.0 22.0 0.00 0.50 0.04 58 989.1
20260506150004 51 205 8.0 18.0 0.00 0.50 0.04 57 988.6
20260506144504 51 298 20.0 26.0 0.01 0.50 0.04 62 988.0
20260506143003 49 223 14.0 19.0 0.04 0.50 0.04 62 987.8
20260506141503 48 163 10.0 17.0 0.04 0.50 0.04 63 987.7
20260506140003 46 119 3.0 10.0 0.04 0.50 0.04 60 987.3
20260506134503 45 204 9.0 13.0 0.03 0.49 0.03 65 986.9
20260506043003 41 215 3.0 9.0 0.00 0.46 0.46 76 991.1
20260506041503 42 236 5.0 12.0 0.00 0.46 0.46 77 991.3
20260506040004 43 216 6.0 12.0 0.00 0.46 0.46 73 991.0
20260506034504 44 224 8.0 13.0 0.00 0.46 0.46 72 991.1
20260506033004 44 176 7.0 13.0 0.00 0.46 0.46 65 991.0
20260506031503 46 265 8.0 13.0 0.00 0.46 0.46 65 991.1
20260506030003 47 200 4.0 9.0 0.00 0.46 0.46 61 991.2
20260506024525 49 198 16.0 24.0 0.00 0.46 0.46 68 991.2
20260506023003 49 122 9.0 16.0 0.00 0.46 0.46 60 991.2
20260506021503 51 208 14.0 19.0 0.00 0.46 0.46 59 991.1
20260506020003 50 324 3.0 11.0 0.00 0.46 0.46 45 990.7
20260506014503 52 290 14.0 24.0 0.10 0.46 0.46 50 990.5
20260506013004 55 283 23.0 30.0 0.17 0.46 0.46 58 991.0
20260506011504 56 290 18.0 28.0 0.22 0.46 0.46 54 990.9
20260506010004 57 182 22.0 31.0 0.26 0.46 0.46 54 990.8
20260506004504 59 197 17.0 39.0 0.24 0.35 0.36 56 991.1
20260506003004 58 229 16.0 24.0 0.19 0.28 0.29 45 990.3
20260506001504 60 165 17.0 26.0 0.17 0.24 0.24 45 990.2
20260506000004 62 121 22.0 34.0 0.19 0.19 0.19 49 990.2
20260505234525 60 133 10.0 19.0 0.11 0.17 0.11 35 989.5
20260505233005 62 166 8.0 23.0 0.09 0.16 0.10 38 989.6
20260505231525 63 184 19.0 36.0 0.07 0.17 0.07 39 989.2
20260505230005 63 128 19.0 33.0 0.00 0.13 0.00 33 988.8
20260505224505 64 191 9.0 18.0 0.00 0.15 0.00 31 988.7
20260505223005 65 171 17.0 31.0 0.00 0.20 0.00 32 988.5
20260505221505 66 155 18.0 32.0 0.00 0.25 0.00 36 988.5
20260505220026 65 201 13.0 23.0 0.00 0.26 0.00 29 987.9
20260505214505 67 189 18.0 31.0 0.00 0.26 0.00 33 987.9
20260505213005 67 235 15.0 37.0 0.00 0.26 0.00 35 987.7
20260505211505 67 257 17.0 28.0 0.00 0.26 0.00 32 987.3
20260505210005 68 241 25.0 39.0 0.00 0.26 0.00 37 987.2
20260505204504 67 261 24.0 39.0 0.00 0.26 0.00 30 986.4
20260505203005 68 272 24.0 33.0 0.00 0.26 0.00 32 986.2
20260505201504 69 244 27.0 49.0 0.00 0.26 0.00 40 986.6
20260505200004 67 223 29.0 40.0 0.00 0.26 0.00 31 985.6
20260505194504 67 185 25.0 38.0 0.00 0.26 0.00 34 985.6
20260505193004 66 143 23.0 33.0 0.00 0.26 0.00 30 985.2
20260505191504 66 116 17.0 29.0 0.00 0.26 0.00 31 985.2
20260505190004 64 121 12.0 25.0 0.00 0.26 0.00 21 984.4
20260505184504 65 134 11.0 23.0 0.00 0.26 0.00 29 984.7
20260505183004 64 172 10.0 22.0 0.00 0.26 0.00 29 984.4
20260505181504 65 175 16.0 30.0 0.00 0.26 0.00 38 984.6
20260505180004 64 124 23.0 30.0 0.00 0.26 0.00 38 984.2